Terug naar catalogus

FENGYUN 1C DEB

ActiefPO
NORAD 29897·DEBRIS·🇨🇳 China

Gelanceerd May 10, 1999 vanaf Taiyuan Satellite Launch Center

Loading…

Volgende Passages (komende 24 uur)

TLE

VersSource: Space-Track

Epoch: Sep 14, 2026, 00:02 UTC

1 29897U 99025GT  26257.00195904  .00001173  00000-0  12531-2 0  9996
2 29897  98.6108  93.0065 0295903 141.2344  13.7285 13.58129470966758

Volg FENGYUN 1C DEB in realtime met AllMySat

Download on the App Store